Погода в Лосево

Россия / Санкт-Петербург и Ленинградская область     60°40′57″N   29°59′54″E
темп.,
°C
ветер,
м/с
пор.,
м/с
влажн.,
%
обл.,
%
осадки,
мм/ч
давл.,
гПа
погр.,
м
6 августа, пт
пт600:00+11св11812 0.0 101610
03:00+10с22864 0.0 101642
06:00+11ссв27905 0.0 1016168
09:00+18всв46595 0.0 1016789
12:00+19всв58515 0.0 10161326
15:00+19в610516 0.0 10161639
18:00+17в511595 0.0 10151251
21:00+14всв4117620 0.0 1015807
7 августа, сб
сб700:00+14всв5117622 0.0 1014721
03:00+13всв5128781 0.0 1013667
06:00+14всв51087100 0.0 1013719
09:00+15всв51182100 0.0 1012820
12:00+16всв51181100 0.1 1011859
15:00+15в61392100 1.1 1010827
18:00+15в71497100 8.6 1008919
21:00+16в61397100 18.4 1008971
8 августа, вс
вс800:00+16в4998100 0.8 1008528
03:00+16вюв2799100 0.9 1008348
06:00+16в3699100 0.3 1008335
09:00+17ююв259499 0.3 1009379
12:00+18юв138613 0.0 1010342
15:00+22вюв3455100 0.1 1011972
18:00+22ююв225698 0.0 1012821
21:00+17юв2285100 0.0 101326
9 августа, пн
пн900:00+15ююв1195100 0.0 101411
03:00+15юв249680 0.0 101467
06:00+15вюв2494100 0.0 1013118
09:00+20юв3572100 0.0 1013442
12:00+20вюв3772100 0.0 1013541
15:00+23ююв356685 0.3 10121013
18:00+21юз3683100 1.9 1013693
21:00+17ююз389515 2.3 1014253
10 августа, вт
вт1000:00+17юз4109655 0.0 1014533
03:00+15ююз289827 0.0 1015276
06:00+15ю279928 0.0 1016180
09:00+19ююз36780 0.0 1017655
12:00+23юз465097 0.0 10171587
15:00+24юз454799 0.0 10171823
18:00+22зюз3454100 0.0 10171257
21:00+17зюз1175100 0.0 101711